This demonstration page uses our WeatherBlox Daily Observations layout. Learn more.

Left ArrowRight Arrow

Hourly Observations for March 9, 2020

Temp ( °F °C ) Dew Point ( °F °C ) Humidity (%) Winds ( mph kmh ) Pressure ( in mb ) Visibility ( mi km ) Precip ( " mm )
12:53 am 00:53 Clear 16 -8.9 12 -11.1 84 84 N N/A 30.09 1019 10 16 N/A
1:53 am 01:53 Clear 14 -10 12 -11.1 92 92 N N/A 30.10 1019 10 16 N/A
2:53 am 02:53 Clear 13 -10.6 10 -12.2 88 88 N N/A 30.10 1019 10 16 N/A
3:53 am 03:53 Clear 14 -10 11 -11.7 88 88 N N/A 30.10 1019 10 16 N/A
4:53 am 04:53 Clear 14 -10 11 -11.7 88 88 S 6 9 30.11 1020 10 16 N/A
5:53 am 05:53 Clear 13 -10.6 10 -12.2 88 88 WSW 5 7 30.14 1021 10 16 N/A
6:53 am 06:53 Mostly Cloudy 13 -10.6 11 -11.7 92 92 N N/A 30.15 1021 10 16 N/A
7:53 am 07:53 Mostly Sunny 15 -9.4 13 -10.6 91 91 S 3 6 30.16 1021 10 16 N/A
8:53 am 08:53 Mostly Cloudy 18 -7.8 15 -9.4 88 88 WSW 5 7 30.18 1022 9 14 N/A
9:53 am 09:53 Sunny 20 -6.7 16 -8.9 85 85 W 5 7 30.20 1023 10 16 N/A
10:53 am 10:53 Sunny 25 -3.9 19 -7.2 78 78 W 3 6 30.21 1023 10 16 N/A
11:53 am 11:53 Sunny 26 -3.3 19 -7.2 75 75 WSW 5 7 30.22 1023 10 16 N/A
12:53 pm 12:53 Sunny 29 -1.7 21 -6.1 72 72 WSW 3 6 30.20 1023 10 16 N/A
1:53 pm 13:53 Sunny 32 undefined 21 -6.1 64 64 N N/A 30.20 1023 10 16 N/A
2:53 pm 14:53 Sunny 33 0.6 21 -6.1 61 61 N N/A 30.18 1022 10 16 N/A
3:53 pm 15:53 Sunny 35 1.7 21 -6.1 57 57 SSE 5 7 30.17 1022 10 16 N/A
4:53 pm 16:53 Sunny 36 2.2 21 -6.1 55 55 SSE 6 9 30.17 1022 10 16 N/A
5:53 pm 17:53 Sunny 36 2.2 21 -6.1 55 55 SE 6 9 30.17 1022 10 16 N/A
6:53 pm 18:53 Sunny 34 1.1 22 -5.6 61 61 ENE 7 11 30.18 1022 10 16 N/A
7:53 pm 19:53 Clear 29 -1.7 23 -5 78 78 ENE 9 15 30.20 1023 10 16 N/A
8:53 pm 20:53 Clear 26 -3.3 21 -6.1 81 81 E 7 11 30.22 1023 10 16 N/A
9:53 pm 21:53 Clear 23 -5 19 -7.2 85 85 ENE 5 7 30.22 1023 10 16 N/A
10:53 pm 22:53 Clear 22 -5.6 17 -8.3 82 82 E 7 11 30.21 1023 10 16 N/A
11:53 pm 23:53 Cloudy 24 -4.4 19 -7.2 81 81 NE 7 11 30.19 1023 10 16 N/A

Powered by AerisWeather